Terug naar catalogus

STARLINK-37405

ActiefCommunicatieSSO
NORAD 68809·PAYLOAD·🇺🇸 United States

Gelanceerd Apr 23, 2026 vanaf Vandenberg Space Force Base

Loading…

Volgende Passages (komende 24 uur)

TLE

VersSource: CelesTrak SupGP

Epoch: Sep 15, 2026, 03:11 UTC

1 68809C 26089H   26258.13312500 -.00027287  00000+0 -84673-3 0  2580
2 68809  97.2853 103.9333 0001740  95.0149 283.8994 15.33464225    18

Volg STARLINK-37405 in realtime met AllMySat

Download on the App Store